Springfield, OH

11:50 AM EDT on October 18, 2017 (GMT -0400)
Springfield-Beckley Municipal

Weather History for KSGH - December, 2012

Change the Weather History Date:

Monday, December 17, 2012

  Actual Average (KFFO) Record (KFFO)
Temperature  
Mean Temperature 40 °F -  
Max Temperature 45 °F 37 °F 62 °F (2006)
Min Temperature 36 °F 22 °F 8 °F (2000)
Degree Days  
Heating Degree Days 24    
Moisture  
Dew Point 40 °F    
Average Humidity 95    
Maximum Humidity 100    
Minimum Humidity 85    
Precipitation  
Precipitation 0.41 in - - ()
Sea Level Pressure  
Sea Level Pressure 29.67 in    
Wind  
Wind Speed 4 mph (NNE)    
Max Wind Speed 8 mph    
Max Gust Speed -    
Visibility 1 miles    
Events Fog , Rain , Thunderstorm    
Averages and records for this station are not official NWS values.
T = Trace of Precipitation, MM = Missing Value Source: NWS Daily Summary

Daily Weather History Graph

Daily Weather History Graph

Search for Another Location

Airport or City:

Trip Planner

Search our weather history database for the weather conditions in past years. The results will help you decide how hot, cold, wet, or windy it might be!

Date:

Astronomy

Dec. 17, 2012 Rise Set
Actual Time 7:51 AM EST 5:12 PM EST
Civil Twilight 7:20 AM EST 5:42 PM EST
Nautical Twilight 6:46 AM EST 6:16 PM EST
Astronomical Twilight 6:13 AM EST 6:49 PM EST
Moon 10:59 AM EST (12/17) 10:32 PM EST (12/17)
Length of Visible Light 10h 22m
Length of Day
9h 21m
Waxing Crescent, 24% of the Moon is Illuminated
Dec 17
Waxing Crescent
Dec 20
First Quarter
Dec 28
Full
Jan 4
Last Quarter
Jan 11
New

Hourly Weather History & Observations

Time (EST) Temp. Windchill Dew Point Humidity Pressure Visibility Wind Dir Wind Speed Gust Speed Precip Events Conditions
12:56 AM 43.0 °F 38.8 °F 38.8 °F 85% 29.74 in 6.0 mi NW 6.9 mph - N/A   Partly Cloudy
1:56 AM 41.9 °F - 39.9 °F 93% 29.73 in 5.0 mi Calm Calm - N/A   Clear
2:10 AM 39.2 °F 37.0 °F 39.2 °F 100% 29.74 in 2.0 mi SSE 3.5 mph - N/A   Clear
2:20 AM 39.2 °F 37.0 °F 39.2 °F 100% 29.74 in 4.0 mi South 3.5 mph - N/A   Partly Cloudy
2:28 AM 39.2 °F 37.0 °F 37.4 °F 93% 29.74 in 2.5 mi South 3.5 mph - N/A   Mostly Cloudy
2:41 AM 39.2 °F - 37.4 °F 93% 29.75 in 3.0 mi Calm Calm - N/A   Mostly Cloudy
2:49 AM 39.2 °F - 37.4 °F 93% 29.75 in 1.8 mi Calm Calm - N/A   Mostly Cloudy
2:56 AM 39.9 °F - 37.9 °F 93% 29.76 in 1.0 mi Calm Calm - N/A   Mostly Cloudy
3:02 AM 39.2 °F - 37.4 °F 93% 29.75 in 0.8 mi Calm Calm - N/A   Mostly Cloudy
3:10 AM 39.2 °F 37.0 °F 39.2 °F 100% 29.75 in 1.2 mi West 3.5 mph - N/A   Overcast
3:16 AM 39.2 °F 37.0 °F 39.2 °F 100% 29.75 in 2.0 mi WNW 3.5 mph - N/A   Overcast
3:31 AM 39.2 °F - 37.4 °F 93% 29.75 in 1.2 mi Calm Calm - N/A   Mostly Cloudy
3:33 AM 39.2 °F - 37.4 °F 93% 29.75 in 0.8 mi Calm Calm - N/A   Mostly Cloudy
3:37 AM 37.4 °F - 37.4 °F 100% 29.75 in 0.2 mi Calm Calm - N/A Fog Fog
3:41 AM 37.4 °F - 37.4 °F 100% 29.74 in 0.2 mi Calm Calm - N/A Fog Fog
3:56 AM 36.9 °F - 36.0 °F 97% 29.75 in 0.2 mi Calm Calm - N/A Fog Fog
4:15 AM 37.4 °F - 35.6 °F 93% 29.74 in 0.2 mi Calm Calm - N/A Fog Fog
4:42 AM 37.4 °F - 35.6 °F 93% 29.75 in 0.2 mi Calm Calm - N/A Fog Fog
4:56 AM 36.9 °F 33.1 °F 36.0 °F 97% 29.75 in 0.2 mi North 4.6 mph - N/A Fog Fog
5:07 AM 37.4 °F 32.1 °F 37.4 °F 100% 29.74 in 0.2 mi North 6.9 mph - N/A Fog Fog
5:10 AM 37.4 °F 32.1 °F 37.4 °F 100% 29.74 in 0.5 mi North 6.9 mph - N/A Fog Fog
5:14 AM 39.2 °F 35.0 °F 37.4 °F 93% 29.74 in 1.0 mi North 5.8 mph - N/A   Mostly Cloudy
5:16 AM 39.2 °F 35.0 °F 37.4 °F 93% 29.74 in 1.5 mi North 5.8 mph - N/A   Mostly Cloudy
5:32 AM 39.2 °F 34.2 °F 39.2 °F 100% 29.74 in 1.0 mi North 6.9 mph - N/A   Overcast
5:43 AM 39.2 °F 35.0 °F 39.2 °F 100% 29.73 in 0.8 mi North 5.8 mph - N/A   Overcast
5:56 AM 39.9 °F 37.8 °F 38.8 °F 96% 29.75 in 0.8 mi North 3.5 mph - N/A   Overcast
6:10 AM 39.2 °F 37.0 °F 39.2 °F 100% 29.73 in 0.5 mi NE 3.5 mph - N/A Fog Fog
6:28 AM 39.2 °F 37.0 °F 39.2 °F 100% 29.74 in 0.2 mi NNE 3.5 mph - N/A Fog Fog
6:56 AM 39.9 °F 37.8 °F 38.8 °F 96% 29.76 in 0.2 mi North 3.5 mph - N/A Fog Fog
7:33 AM 39.2 °F 37.0 °F 39.2 °F 100% 29.75 in 0.5 mi North 3.5 mph - N/A Fog Fog
7:42 AM 39.2 °F 37.0 °F 39.2 °F 100% 29.76 in 1.0 mi North 3.5 mph - N/A   Overcast
7:46 AM 39.2 °F 37.0 °F 39.2 °F 100% 29.76 in 1.5 mi North 3.5 mph - N/A   Overcast
7:56 AM 39.9 °F 36.7 °F 38.8 °F 96% 29.77 in 2.0 mi North 4.6 mph - N/A   Overcast
8:06 AM 39.2 °F 35.9 °F 39.2 °F 100% 29.75 in 1.8 mi North 4.6 mph - N/A   Overcast
8:09 AM 39.2 °F 35.0 °F 39.2 °F 100% 29.75 in 1.0 mi North 5.8 mph - N/A   Overcast
8:12 AM 39.2 °F 35.0 °F 39.2 °F 100% 29.74 in 0.5 mi North 5.8 mph - N/A Fog Fog
8:21 AM 39.2 °F 35.0 °F 39.2 °F 100% 29.74 in 0.2 mi North 5.8 mph - N/A Fog Fog
8:56 AM 39.9 °F 35.1 °F 39.9 °F 100% 29.73 in 1.0 mi NNE 6.9 mph - N/A   Overcast
9:18 AM 41.0 °F 35.8 °F 39.2 °F 93% 29.71 in 1.2 mi East 8.1 mph - N/A   Overcast
9:26 AM 41.0 °F 35.8 °F 39.2 °F 93% 29.72 in 1.0 mi East 8.1 mph - N/A   Overcast
9:44 AM 41.0 °F 36.4 °F 39.2 °F 93% 29.71 in 0.8 mi NE 6.9 mph - N/A   Overcast
9:56 AM 41.0 °F 36.4 °F 39.9 °F 96% 29.73 in 0.8 mi ENE 6.9 mph - N/A   Overcast
10:03 AM 41.0 °F 35.8 °F 39.2 °F 93% 29.71 in 1.0 mi ENE 8.1 mph - N/A   Overcast
10:10 AM 41.0 °F 35.8 °F 39.2 °F 93% 29.71 in 1.2 mi ENE 8.1 mph - N/A   Overcast
10:27 AM 42.8 °F 40.1 °F 41.0 °F 93% 29.72 in 1.5 mi NE 4.6 mph - N/A   Overcast
10:56 AM 41.9 °F 39.0 °F 41.0 °F 97% 29.73 in 1.5 mi East 4.6 mph - N/A   Overcast
11:45 AM 42.8 °F 38.6 °F 41.0 °F 93% 29.68 in 2.0 mi East 6.9 mph - N/A   Overcast
11:56 AM 43.0 °F 40.3 °F 41.0 °F 93% 29.68 in 2.0 mi East 4.6 mph - N/A   Overcast
12:56 PM 45.0 °F 41.8 °F 41.9 °F 89% 29.65 in 1.8 mi NE 5.8 mph - 0.00 in Rain Light Rain
1:10 PM 44.6 °F 41.4 °F 42.8 °F 93% 29.63 in 1.0 mi NE 5.8 mph - 0.02 in Rain Heavy Rain
1:37 PM 44.6 °F 40.7 °F 42.8 °F 93% 29.61 in 1.2 mi ENE 6.9 mph - 0.04 in Rain Light Rain
1:44 PM 44.6 °F 40.7 °F 42.8 °F 93% 29.60 in 1.5 mi ENE 6.9 mph - 0.04 in Rain Light Rain
1:56 PM 45.0 °F 41.2 °F 43.0 °F 93% 29.61 in 1.8 mi ENE 6.9 mph - 0.04 in   Overcast
2:33 PM 44.6 °F 40.2 °F 42.8 °F 93% 29.58 in 1.5 mi NE 8.1 mph - 0.00 in Rain , Thunderstorm Light Thunderstorms and Rain
2:46 PM 44.6 °F 40.7 °F 42.8 °F 93% 29.58 in 1.2 mi NNE 6.9 mph - 0.00 in Rain , Thunderstorm Light Thunderstorms and Rain
2:56 PM 43.9 °F 40.5 °F 43.0 °F 97% 29.59 in 1.2 mi ENE 5.8 mph - 0.01 in Rain , Thunderstorm Light Thunderstorms and Rain
3:09 PM 44.6 °F 43.1 °F 42.8 °F 93% 29.59 in 0.8 mi NW 3.5 mph - 0.14 in Rain , Thunderstorm Heavy Thunderstorms and Rain
3:17 PM 44.6 °F 43.1 °F 42.8 °F 93% 29.58 in 1.0 mi ENE 3.5 mph - 0.17 in Rain , Thunderstorm Thunderstorms and Rain
3:24 PM 44.6 °F 40.2 °F 42.8 °F 93% 29.58 in 1.2 mi ESE 8.1 mph - 0.19 in Rain Light Rain
3:30 PM 44.6 °F 42.2 °F 42.8 °F 93% 29.58 in 1.0 mi Variable 4.6 mph - 0.22 in Rain Rain
3:36 PM 44.6 °F 40.2 °F 42.8 °F 93% 29.58 in 0.5 mi NNE 8.1 mph - 0.24 in Fog Fog
3:43 PM 44.6 °F 43.1 °F 42.8 °F 93% 29.58 in 0.8 mi North 3.5 mph - 0.25 in Rain , Thunderstorm Light Thunderstorms and Rain
3:46 PM 44.6 °F 41.4 °F 42.8 °F 93% 29.58 in 1.0 mi NNE 5.8 mph - 0.26 in Rain , Thunderstorm Light Thunderstorms and Rain
3:56 PM 43.9 °F 40.5 °F 43.0 °F 97% 29.59 in 0.8 mi North 5.8 mph - 0.28 in Rain , Thunderstorm Rain
4:04 PM 44.6 °F 40.7 °F 42.8 °F 93% 29.57 in 0.8 mi NNE 6.9 mph - 0.01 in Rain Light Rain
4:11 PM 44.6 °F 41.4 °F 42.8 °F 93% 29.57 in 0.8 mi NNE 5.8 mph - 0.02 in Rain Light Rain
4:18 PM 44.6 °F 41.4 °F 42.8 °F 93% 29.58 in 1.2 mi NNW 5.8 mph - 0.02 in Rain Light Rain
4:24 PM 44.6 °F 40.7 °F 42.8 °F 93% 29.58 in 1.8 mi NNW 6.9 mph - 0.03 in Rain Light Rain
4:42 PM 44.6 °F 40.2 °F 42.8 °F 93% 29.60 in 1.2 mi WNW 8.1 mph - 0.05 in Rain Light Rain
4:48 PM 44.6 °F 40.7 °F 42.8 °F 93% 29.59 in 2.0 mi NNW 6.9 mph - 0.05 in   Overcast
4:56 PM 43.9 °F 41.3 °F 41.9 °F 93% 29.60 in 2.0 mi North 4.6 mph - 0.05 in Rain Light Rain
7:42 PM 42.8 °F 38.6 °F 42.8 °F 100% 29.57 in 2.0 mi NNE 6.9 mph - N/A   Overcast
7:56 PM 41.9 °F 37.5 °F 41.0 °F 97% 29.60 in 2.0 mi NNE 6.9 mph - N/A   Overcast
8:08 PM 42.8 °F 40.1 °F 41.0 °F 93% 29.59 in 1.8 mi NNE 4.6 mph - N/A   Overcast
8:17 PM 42.8 °F 41.1 °F 41.0 °F 93% 29.59 in 2.0 mi NNE 3.5 mph - N/A   Overcast
8:26 PM 42.8 °F 39.3 °F 41.0 °F 93% 29.58 in 1.8 mi North 5.8 mph - N/A   Overcast
8:56 PM 41.9 °F 40.0 °F 39.9 °F 93% 29.61 in 2.0 mi NNW 3.5 mph - N/A   Overcast
9:16 PM 42.8 °F 39.3 °F 39.2 °F 87% 29.59 in 1.8 mi NNW 5.8 mph - N/A   Overcast
9:41 PM 41.0 °F 35.8 °F 39.2 °F 93% 29.59 in 2.0 mi NNW 8.1 mph - N/A   Overcast
9:45 PM 41.0 °F 36.4 °F 39.2 °F 93% 29.59 in 1.2 mi NNW 6.9 mph - N/A   Overcast
9:56 PM 41.0 °F 36.4 °F 39.9 °F 96% 29.61 in 1.2 mi NNW 6.9 mph - N/A   Overcast
10:03 PM 41.0 °F 36.4 °F 39.2 °F 93% 29.60 in 1.5 mi NW 6.9 mph - 0.00 in Rain Light Rain
10:11 PM 41.0 °F 35.8 °F 39.2 °F 93% 29.60 in 1.0 mi NW 8.1 mph - 0.00 in   Overcast
10:38 PM 39.2 °F 34.2 °F 39.2 °F 100% 29.61 in 1.5 mi NW 6.9 mph - 0.02 in Rain Light Rain
10:56 PM 39.9 °F 34.5 °F 38.8 °F 96% 29.63 in 2.0 mi NW 8.1 mph - 0.03 in Rain Light Rain
11:17 PM 39.2 °F 34.2 °F 37.4 °F 93% 29.62 in 2.5 mi WNW 6.9 mph - 0.00 in   Overcast
11:42 PM 39.2 °F 33.6 °F 37.4 °F 93% 29.61 in 2.5 mi NNW 8.1 mph - 0.00 in   Overcast
11:56 PM 38.8 °F 33.2 °F 37.9 °F 97% 29.63 in 2.5 mi NW 8.1 mph - 0.00 in   Overcast